Retour au catalogue

Norby-3

ActifScienceSSO
NORAD 61761·PAYLOAD·🇷🇺 Russia

Lancé Nov 4, 2024 depuis Vostochny Cosmodrome

Loading…

Prochains Passages (prochaines 24 heures)

TLE

FraisSource: Space-Track

Époque: Sep 14, 2026, 15:38 UTC

1 61761U 24199AC  26257.65197448  .00050346  00000-0  52118-3 0  9990
2 61761  97.2722 136.5463 0001938 319.9328  40.1789 15.64571052151569

Suivez Norby-3 en temps réel avec AllMySat

Download on the App Store